[[{"header":{"parameterUnit":"m.s-1","parameterCategory":1,"la1":30.2991,"la2":30.254,"lo1":-89.0895,"lo2":-89.0444,"dy":0.0017,"dx":0.0017,"nx":28,"ny":28,"refTime":"2024-05-29T21:00:00:Z","depth":0,"parameterNumber":2,"parameterNumberName":"U-component_of_WINDS"},"data":[0,0,0,0,0,0,0,0,0,0,0,0,0,0,0,0,0,0,0,0,0,0,0,0,0,0,0,0,0,0,0,0,0,0,0,0,0,0,0,0,0,0,0,0,0,0,0,0,0,0,0,0,0,0,0,0,0,0,-4.5391,-4.5392,0,-4.5467,-4.5468,-4.5469,-4.5463,-4.5462,-4.5461,-4.546,-4.5534,-4.5537,-4.554,0,0,0,0,0,0,0,0,0,0,0,0,0,-4.5237,-4.524,-4.5391,-4.5392,-4.5393,-4.5467,-4.5468,-4.5469,-4.5464,-4.5462,-4.5461,-4.5459,-4.5533,-4.5537,-4.5541,0,0,0,0,0,0,0,0,0,0,0,0,0,-4.5308,-4.5241,-4.539,-4.5399,-4.54,-4.5467,-4.5468,-4.5469,-4.5464,-4.5462,-4.546,-4.5459,-4.5532,-4.5537,-4.5541,-4.5603,0,0,-4.5555,-4.5557,0,0,0,0,0,0,0,0,-4.5304,-4.5313,-4.5397,-4.5398,-4.54,-4.5454,-4.5441,-4.5514,-4.5464,-4.544,-4.546,-4.5458,-4.5509,-4.5515,-4.5533,-4.5607,-4.561,-4.5556,-4.5558,-4.556,-4.5562,0,0,0,0,0,0,0,-4.5299,-4.531,-4.5421,-4.5398,-4.54,-4.5398,-4.5406,-4.5455,-4.5483,-4.5442,-4.5441,-4.5451,-4.5509,-4.5529,-4.5535,-4.5611,-4.5555,-4.5559,-4.5562,-4.5564,-4.5739,-4.5741,0,0,0,0,0,0,-4.5292,-4.5306,-4.5418,-4.5423,-4.5347,-4.5402,-4.5411,-4.5438,-4.5482,-4.5487,-4.5452,-4.545,-4.5522,-4.553,-4.5537,-4.5612,-4.556,-4.5564,-4.5567,-4.5737,-4.5739,-4.5741,0,0,0,0,0,0,-4.5289,-4.5303,-4.5415,-4.5365,-4.5379,-4.5407,-4.5437,-4.5441,-4.546,-4.549,-4.5495,-4.5467,-4.5521,-4.5531,-4.5587,-4.5614,-4.5566,-4.5571,-4.5735,-4.5738,-4.574,-4.5761,0,0,0,0,0,0,-4.5285,-4.5301,-4.5325,-4.5365,-4.5382,-4.5464,-4.5439,-4.5444,-4.5468,-4.5467,-4.5505,-4.551,-4.552,-4.558,-4.5592,-4.562,-4.5574,-4.5732,-4.5736,-4.5739,-4.5758,-4.5764,-4.577,0,0,0,0,0,-4.5279,-4.5328,-4.5327,-4.534,-4.5412,-4.5466,-4.5475,-4.5487,-4.5471,-4.5495,-4.5514,-4.5509,-4.5611,-4.5586,-4.5599,-4.5628,-4.5731,-4.5735,-4.5739,-4.5756,-4.5763,-4.577,0,0,0,0,0,0,-4.5288,-4.5333,-4.5332,-4.5395,-4.5427,-4.5465,-4.5495,-4.5495,-4.5531,-4.5527,-4.554,-4.5549,-4.5605,-4.5623,-4.5595,-4.5691,-4.5668,-4.5675,-4.5676,-4.5684,-4.569,-4.5682,-4.5578,0,0,0,0,0,-4.5298,-4.5339,-4.5375,-4.5427,-4.5443,-4.5467,-4.549,-4.5497,-4.553,-4.5543,-4.5567,-4.5598,-4.5637,-4.5662,-4.57,-4.5762,-4.577,-4.5789,-4.5795,-4.58,-4.5804,-4.5838,-4.5847,-4.5756,-4.5756,-4.5755,0,0,-4.5318,-4.5347,-4.5371,-4.543,-4.5455,-4.5496,-4.5478,-4.5522,-4.5551,-4.5549,-4.5603,-4.5622,-4.5658,-4.5718,-4.5745,-4.5734,-4.5832,-4.5805,-4.5809,-4.5811,-4.5843,-4.5852,-4.586,-4.5759,-4.5758,-4.5758,0,0,-4.5373,-4.5401,-4.5446,-4.5473,-4.5513,-4.5528,-4.554,-4.5578,-4.5591,-4.5646,-4.5645,-4.5681,-4.5749,-4.5774,-4.5795,-4.5864,-4.5859,-4.5876,-4.5905,-4.5938,-4.5945,-4.5951,-4.5973,-4.5982,-4.5882,-4.5882,-4.5882,0,-4.5392,-4.5454,-4.547,-4.5514,-4.5539,-4.5542,-4.5587,-4.5612,-4.5661,-4.5678,-4.5667,-4.5752,-4.5776,-4.5841,-4.5858,-4.5876,-4.5888,-4.587,-4.5943,-4.5949,-4.5955,-4.5977,-4.5985,-4.5883,-4.5883,-4.5883,-4.5883,0,-4.5474,-4.5517,-4.555,-4.5598,-4.5628,-4.5673,-4.5694,-4.5722,-4.5728,-4.5744,-4.58,-4.5831,-4.5874,-4.5891,-4.5896,-4.5957,-4.5949,-4.594,-4.5917,-4.5965,-4.5986,-4.5994,-4.5885,-4.5885,-4.5884,-4.5884,0,0,-4.5533,-4.5593,-4.5604,-4.5626,-4.5671,-4.5705,-4.575,-4.5794,-4.5817,-4.5852,-4.5889,-4.5948,-4.594,-4.5965,-4.5973,-4.6003,-4.6053,-4.599,-4.5991,-4.5998,-4.612,-4.6124,-4.6133,-4.6052,-4.6054,-4.6055,-4.6116,0,-4.5592,-4.5672,-4.5689,-4.5758,-4.5798,-4.5803,-4.5842,-4.5874,-4.5892,-4.5927,-4.5947,-4.5987,-4.5976,-4.599,-4.602,-4.604,-4.6077,-4.6037,-4.6084,-4.6086,-4.6072,-4.6144,-4.6148,-4.6204,-4.6124,-4.6126,-4.6127,0,-4.5669,-4.5707,-4.5781,-4.5822,-4.5839,-4.5874,-4.5916,-4.5951,-4.5987,-4.5998,-4.6027,-4.6033,-4.608,-4.6058,-4.6121,-4.6094,-4.6115,-4.6129,-4.6131,-4.6133,-4.6106,-4.6145,-4.6222,-4.6229,-4.614,-4.6139,-4.6138,0,-4.5702,-4.5772,-4.5825,-4.5845,-4.5894,-4.5918,-4.594,-4.5975,-4.6001,-4.6038,-4.6054,-4.6096,-4.6118,-4.615,-4.6167,-4.615,-4.6229,-4.6209,-4.6238,-4.6237,-4.6251,-4.6249,-4.6329,-4.627,-4.627,-4.627,-4.627,0,-4.5763,-4.5807,-4.5841,-4.5873,-4.5923,-4.5942,-4.5991,-4.6012,-4.6043,-4.6079,-4.6087,-4.612,-4.6142,-4.6179,-4.6193,-4.6242,-4.6253,-4.6262,-4.6264,-4.6259,-4.6258,-4.627,-4.6266,-4.6272,-4.6272,-4.6271,-4.6271,0,-4.5806,-4.5831,-4.5889,-4.5932,-4.5944,-4.5978,-4.6015,-4.6046,-4.6065,-4.6111,-4.6122,-4.6152,-4.6196,-4.6217,-4.6271,-4.628,-4.6336,-4.6337,-4.6323,-4.6324,-4.635,-4.6347,-4.6439,-4.6451,-4.6387,-4.6387,-4.6388,0,-4.5842,-4.5876,-4.5924,-4.5949,-4.5972,-4.6012,-4.6039,-4.606,-4.6088,-4.6133,-4.6158,-4.6203,-4.6238,-4.6308,-4.6334,-4.6375,-4.6376,-4.6405,-4.6381,-4.6375,-4.6373,-4.6369,-4.6372,-4.6408,-4.6409,-4.6409,-4.641,0,-4.5902,-4.5913,-4.5952,-4.5996,-4.6028,-4.6063,-4.6097,-4.6118,-4.6144,-4.6175,-4.622,-4.6248,-4.6304,-4.6347,-4.6391,-4.6413,-4.6415,-4.6418,-4.6426,-4.6419,-4.6409,-4.6413,-4.6332,-4.6414,-4.6414,-4.6414,-4.6413,-4.6413,-4.5941,-4.5971,-4.601,-4.6053,-4.6082,-4.6114,-4.6146,-4.617,-4.6208,-4.6256,-4.6267,-4.6314,-4.6351,-4.641,-4.6433,-4.647,-4.6463,-4.6476,-4.6478,-4.648,-4.6481,-4.6406,-4.6478,-4.6478,-4.6478,-4.6478,-4.6478,0,-4.5999,-4.6024,-4.6064,-4.6113,-4.6147,-4.615,-4.6189,-4.6216,-4.6258,-4.6293,-4.6329,-4.6381,-4.6424,-4.6454,-4.6498,-4.6521,-4.6524,-4.6532,-4.6528,-4.6533,-4.6485,-4.6472,-4.6529,-4.6529,-4.6529,-4.6529,-4.6529,-4.6529,-4.6032,-4.6084,-4.61,-4.6166,-4.6191,-4.6239,-4.626,-4.629,-4.6318,-4.6376,-4.6412,-4.6433,-4.6465,-4.6512,-4.6551,-4.6559,-4.6573,-4.6581,-4.6588,-4.6542,-4.6536,-4.6531,-4.6519,-4.6584,-4.6584,-4.6632,-4.6633,-4.6633]},{"header":{"parameterUnit":"m.s-1","parameterCategory":1,"la1":30.2991,"la2":30.254,"lo1":-89.0895,"lo2":-89.0444,"dy":0.0017,"dx":0.0017,"nx":28,"ny":28,"refTime":"2024-05-29T21:00:00:Z","depth":0,"parameterNumber":3,"parameterNumberName":"V-component_of_WINDS"},"data":[0,0,0,0,0,0,0,0,0,0,0,0,0,0,0,0,0,0,0,0,0,0,0,0,0,0,0,0,0,0,0,0,0,0,0,0,0,0,0,0,0,0,0,0,0,0,0,0,0,0,0,0,0,0,0,0,0,0,3.0454,3.0455,0,3.055,3.0551,3.0552,3.0583,3.0582,3.0582,3.0581,3.0676,3.0678,3.0681,0,0,0,0,0,0,0,0,0,0,0,0,0,3.0294,3.0297,3.0454,3.0455,3.0456,3.055,3.0551,3.0552,3.0583,3.0582,3.0582,3.0581,3.0675,3.0678,3.0681,0,0,0,0,0,0,0,0,0,0,0,0,0,3.0374,3.0297,3.0453,3.0483,3.0486,3.0549,3.0551,3.0553,3.0583,3.0582,3.0581,3.0581,3.0673,3.0678,3.0682,3.0722,0,0,3.0695,3.0697,0,0,0,0,0,0,0,0,3.0369,3.038,3.0477,3.0481,3.0485,3.0554,3.0529,3.0609,3.0583,3.0546,3.0581,3.0581,3.0635,3.0643,3.0662,3.0726,3.073,3.0696,3.0698,3.07,3.0701,0,0,0,0,0,0,0,3.0364,3.0376,3.0492,3.0478,3.0483,3.049,3.0501,3.0544,3.0593,3.0549,3.0552,3.0563,3.0637,3.0658,3.0664,3.0732,3.0696,3.0699,3.0702,3.0704,3.0835,3.0835,0,0,0,0,0,0,3.0354,3.0371,3.0488,3.0494,3.0424,3.0493,3.0505,3.0532,3.0593,3.0601,3.0563,3.0564,3.0651,3.0659,3.0668,3.0719,3.07,3.0704,3.0707,3.0834,3.0835,3.0836,0,0,0,0,0,0,3.035,3.0364,3.0485,3.0433,3.0449,3.0497,3.0527,3.0534,3.0555,3.0603,3.0612,3.0576,3.065,3.0662,3.0709,3.0723,3.0706,3.071,3.0833,3.0834,3.0835,3.0822,0,0,0,0,0,0,3.0345,3.0362,3.0378,3.0434,3.0452,3.0525,3.0528,3.0537,3.0563,3.0565,3.0617,3.0625,3.0651,3.0702,3.0713,3.0729,3.0714,3.0832,3.0833,3.0835,3.0821,3.0822,3.0823,0,0,0,0,0,3.0339,3.037,3.0379,3.0393,3.0473,3.0525,3.0536,3.0566,3.0564,3.058,3.0612,3.0623,3.072,3.0707,3.0719,3.0736,3.0831,3.0833,3.0835,3.082,3.0822,3.0823,0,0,0,0,0,0,3.0313,3.0377,3.0388,3.0438,3.0476,3.053,3.0552,3.0566,3.0605,3.0605,3.064,3.0651,3.0696,3.0721,3.0705,3.0779,3.0776,3.078,3.0761,3.0762,3.0764,3.0756,3.0717,0,0,0,0,0,3.0313,3.0351,3.0405,3.0443,3.0462,3.0504,3.0527,3.0548,3.0588,3.0604,3.0639,3.0677,3.0716,3.0741,3.0779,3.0825,3.0837,3.0843,3.0844,3.0845,3.0848,3.0875,3.0879,3.0842,3.0842,3.0842,0,0,3.0313,3.0353,3.0375,3.0439,3.0471,3.0509,3.0517,3.0556,3.0585,3.061,3.0657,3.0684,3.0728,3.0775,3.0798,3.0798,3.0861,3.0847,3.0848,3.0851,3.0878,3.0881,3.0884,3.0843,3.0843,3.0843,0,0,3.0333,3.0367,3.0403,3.0436,3.0485,3.0513,3.0522,3.0575,3.0594,3.0642,3.0662,3.0696,3.0762,3.0794,3.0818,3.0852,3.0864,3.0863,3.0869,3.0895,3.0898,3.0901,3.0913,3.0917,3.0867,3.0867,3.0867,0,3.0326,3.0385,3.0419,3.0459,3.0486,3.0513,3.0549,3.0579,3.0637,3.0656,3.0655,3.074,3.0772,3.0827,3.0836,3.0854,3.0865,3.0857,3.0895,3.0898,3.0901,3.0913,3.0918,3.0866,3.0866,3.0866,3.0866,0,3.0375,3.0416,3.0439,3.0497,3.0527,3.0565,3.0604,3.063,3.0648,3.0676,3.0725,3.0765,3.0812,3.0827,3.0844,3.0885,3.0883,3.0889,3.0886,3.0904,3.0916,3.0921,3.0866,3.0866,3.0866,3.0866,0,0,3.0379,3.0458,3.0465,3.0493,3.055,3.0582,3.062,3.0669,3.0691,3.0731,3.0764,3.0821,3.0826,3.0854,3.0875,3.0898,3.0923,3.0901,3.0902,3.0904,3.0971,3.0967,3.0972,3.0932,3.0933,3.0934,3.0967,0,3.0407,3.0479,3.0511,3.0568,3.0606,3.0633,3.0667,3.0705,3.0732,3.0768,3.0798,3.0838,3.0842,3.0859,3.0883,3.0915,3.0937,3.0913,3.0963,3.0964,3.095,3.0978,3.0973,3.1003,3.0972,3.0973,3.0974,0,3.0448,3.049,3.0551,3.0605,3.0623,3.0653,3.07,3.0734,3.0778,3.0797,3.0829,3.085,3.0891,3.0887,3.0944,3.0927,3.0949,3.0968,3.097,3.0976,3.0969,3.0984,3.1013,3.1017,3.0981,3.0981,3.098,0,3.0445,3.0517,3.0564,3.0586,3.065,3.0671,3.0698,3.0742,3.0769,3.081,3.0828,3.0873,3.0898,3.0932,3.0964,3.0957,3.1018,3.1016,3.1034,3.1033,3.1045,3.1044,3.1078,3.106,3.106,3.106,3.1059,0,3.0472,3.0509,3.0564,3.0592,3.0634,3.067,3.071,3.074,3.0779,3.0813,3.0838,3.0869,3.091,3.0946,3.0972,3.1016,3.1026,3.1042,3.1048,3.104,3.1038,3.1054,3.1053,3.1061,3.1061,3.106,3.106,0,3.0476,3.0514,3.0567,3.0624,3.0639,3.0667,3.0716,3.0744,3.0774,3.0817,3.0829,3.0874,3.0918,3.0954,3.1011,3.1028,3.1075,3.1082,3.106,3.1063,3.1079,3.1077,3.1125,3.1133,3.1109,3.111,3.111,0,3.0491,3.052,3.0581,3.0606,3.0634,3.0674,3.0703,3.074,3.0769,3.0822,3.0844,3.0891,3.093,3.0999,3.1037,3.1081,3.1089,3.1103,3.1096,3.1087,3.109,3.1087,3.1091,3.1103,3.1104,3.1104,3.1104,0,3.0512,3.0531,3.0571,3.062,3.0654,3.0693,3.0732,3.0752,3.0796,3.0827,3.0874,3.0904,3.0964,3.1009,3.1058,3.1085,3.1102,3.1106,3.1112,3.1104,3.109,3.1098,3.1062,3.1104,3.1104,3.1104,3.1104,3.1104,3.0522,3.055,3.0598,3.0643,3.0677,3.0714,3.0744,3.0778,3.0818,3.087,3.089,3.0937,3.0982,3.1049,3.1077,3.1114,3.1116,3.1125,3.1127,3.1129,3.1128,3.1085,3.1123,3.1123,3.1123,3.1123,3.1123,0,3.0546,3.0578,3.062,3.0675,3.0711,3.0725,3.077,3.0799,3.0841,3.0882,3.092,3.0974,3.1019,3.1061,3.1108,3.113,3.1138,3.1141,3.1139,3.1145,3.1124,3.1114,3.1133,3.1133,3.1133,3.1133,3.1133,3.1133,3.0562,3.061,3.0634,3.0699,3.0731,3.0779,3.0803,3.0837,3.087,3.093,3.0968,3.0995,3.1037,3.1087,3.1129,3.114,3.1156,3.1156,3.1169,3.1148,3.1147,3.1145,3.1136,3.1159,3.1159,3.1187,3.1188,3.1188]}]]